Vasileios Tzolis

Olheiro-Chefe - AEL Larisa
13 Jan 2028
Quinta-feira
Processo

Personalidade

Adaptabilidade (11) Ambição (17) Controvérsia (18) Lealdade (10) Pressão (9) Profissionalismo (1) Espírito Esportivo (18) Temperamento (19)

Perfil

Estilo de Treinamento Democrático
Licença Continental B
Determinação 11
Gestão de Pessoas 4
Motivação 3
Disciplina 3
Satisfação no Trabalho
100%
Fadiga
0%
Função Olheiro-Chefe
Salário 69.4K p/s
Contrato 14.03.2029

Desempenho

Comportamento Bom
Eficácia do Treinamento
44%
Desenvolvimento do Jogador
25%
Prevenção de Lesões
45%
Implementação Tática
50%

Eventos Recentes

Participou de uma reunião de recrutamento agora
Recomendou um alvo de transferência agora
Participou de uma reunião de recrutamento agora
Recomendou um alvo de transferência agora
Recomendou um alvo de transferência agora
Recomendou um alvo de transferência agora
Apresentou um dossiê à direção 7d atrás
Apresentou um dossiê à direção 7d atrás

Monitorando agora

111
Jogador Clube Status Habilidade Confiança Observado Última observação Último voto
Pedro de la Vega FC Dallas Relatório pronto 133 / 134 66% 1 01.01.2028 Aprovar
Bradley Phiri Lillestrom Ativo 112 / 112 66% 1 01.06.2027 Aprovar
Razvan Mitrita San Diego Football Club Ativo 118 / 120 66% 1 01.06.2027 Aprovar
Goga Kobiashvili Veres Ativo 92 / 92 66% 1 01.06.2027 Aprovar
Shota Shekiladze Akhmat Grozny Ativo 110 / 110 66% 1 01.06.2027 Aprovar
Juan Neira OFI Ativo 115 / 104 58% 1 01.06.2027 Aprovar
Scott Twine Bristol City Ativo 130 / 118 40% 7 30.05.2027 -
Ronald Swansea City Ativo 114 / 123 40% 6 30.05.2027 -
Jack Currie Oxford United Ativo 116 / 123 40% 4 30.05.2027 -
Tyler Goodrham Oxford United Ativo 118 / 116 40% 1 29.05.2027 -
Florentino Luís Ipswich Town Ativo 146 / 143 40% 3 27.05.2027 -
Million Manhoef Stoke City Ativo 129 / 124 40% 1 27.05.2027 -
Jack Diamond Stockport County Ativo 112 / 115 40% 4 25.05.2027 -
Daniel Kyerewaa Reading Ativo 123 / 114 40% 5 25.05.2027 -
David Turnbull Cardiff City Ativo 135 / 112 40% 3 24.05.2027 -
Darlin Yongwa Norwich City Ativo 131 / 122 40% 3 24.05.2027 -
Ethan Galbraith Swansea City Ativo 130 / 142 40% 4 23.05.2027 -
Milan van Ewijk Mansfield Town Ativo 135 / 139 40% 3 23.05.2027 -
Kasey McAteer Ipswich Town Ativo 122 / 138 40% 2 23.05.2027 -
Samuele Angori Pisa Ativo 129 / 142 40% 1 23.05.2027 -
Mandla Erasmus SuperSport United Ativo 129 / 120 40% 7 17.05.2027 -
Isaiah Jones Luton Town Ativo 116 / 117 40% 8 17.05.2027 -
Tshepang Moremi Orlando Pirates Ativo 120 / 111 40% 5 16.05.2027 Observar
Armando Dobra Chesterfield Ativo 102 / 104 40% 1 16.05.2027 -
Derry Murkin Derby County Ativo 126 / 124 40% 3 15.05.2027 -
Harry Clarke Preston Ativo 137 / 129 40% 2 14.05.2027 -
Mathias Jørgensen Blackburn Rovers Ativo 128 / 128 40% 3 14.05.2027 -
Christos Mouzakitis Hull City Ativo 129 / 142 40% 1 14.05.2027 -
Josh Edwards Charlton Athletic Ativo 111 / 115 40% 1 14.05.2027 -
Derensili Sanches Fernandes Huddersfield Town Ativo 121 / 133 40% 3 12.05.2027 -
Jack McGlynn Stoke City Ativo 130 / 146 40% 2 12.05.2027 -
Koki Saito Queens Park Rangers Ativo 135 / 126 40% 1 10.05.2027 -
Cian Ashford Cardiff City Ativo 118 / 119 40% 4 08.05.2027 -
Brian De Keersmaecker Oxford United Ativo 115 / 121 40% 3 08.05.2027 -
Ali Ahmed Norwich City Ativo 116 / 115 40% 2 04.05.2027 -
Charlie Webster Burton Albion Ativo 105 / 103 40% 3 03.05.2027 -
Caolan Boyd-Munce Wycombe Wanderers Ativo 108 / 131 40% 2 03.05.2027 -
Zak Swanson Bradford City Ativo 108 / 118 40% 1 03.05.2027 -
Adam Randell Bristol City Ativo 140 / 131 40% 2 02.05.2027 -
Giorgi Chakvetadze Watford Ativo 125 / 115 40% 1 02.05.2027 -
Pelle Mattsson Norwich City Ativo 124 / 126 40% 2 30.04.2027 -
Tomáš Rigo Stoke City Ativo 128 / 118 40% 3 29.04.2027 -
Joseph Hungbo Wigan Athletic Ativo 111 / 107 40% 1 27.04.2027 -
Nathan Moriah-Welsh Mansfield Town Ativo 101 / 107 40% 1 27.04.2027 -
Kwame Poku Queens Park Rangers Ativo 127 / 129 40% 2 24.04.2027 -
Mamadou Sangaré Brentford Ativo 154 / 146 40% 2 24.04.2027 -
Tyreece Campbell Charlton Athletic Ativo 103 / 115 40% 2 24.04.2027 -
Kane Wilson Milton Keynes Dons Ativo 109 / 107 40% 1 24.04.2027 -
Edoardo Bove Watford Ativo 141 / 139 40% 1 23.04.2027 -
Toby Collyer West Bromwich Albion Ativo 129 / 134 40% 1 23.04.2027 -
Mohamed Belloumi Hull City Ativo 138 / 125 40% 2 20.04.2027 -
Archie Collins Peterborough United Ativo 122 / 120 40% 1 20.04.2027 -
Richard Koné Queens Park Rangers Ativo 130 / 121 40% 3 18.04.2027 -
Ethan Williams Peterborough United Ativo 121 / 113 40% 6 16.04.2027 -
Alfie Doughty Millwall Ativo 116 / 133 40% 1 15.04.2027 -
Othmane Maamma Watford Ativo 127 / 121 40% 3 11.04.2027 -
Jack Rudoni Coventry City Ativo 134 / 130 40% 3 10.04.2027 -
Isaac Price West Bromwich Albion Ativo 120 / 120 40% 3 09.04.2027 -
Ollie Tanner Cardiff City Ativo 126 / 103 40% 1 08.04.2027 -
Ethan Pye Stockport County Ativo 108 / 131 40% 1 08.04.2027 -
Kristoffer Lund Birmingham Ativo 125 / 118 40% 1 08.04.2027 -
Justin Devenny Stoke City Ativo 112 / 119 40% 1 07.04.2027 -
Abdul Fatawu Leicester City Ativo 131 / 145 40% 1 30.03.2027 -
Tommy Conway Middlesbrough Ativo 123 / 141 40% 1 25.03.2027 -
Tyrese Campbell Sheffield United Ativo 127 / 139 40% 1 23.03.2027 -
Ilyas Ansah Hull City Ativo 144 / 122 40% 1 22.03.2027 -
Stanley Mills Oxford United Ativo 120 / 117 40% 1 21.03.2027 -
Andreas Chrysostomou Anorthosis Ativo 127 / 122 40% 2 19.03.2027 -
Kwadwo Baah Watford Ativo 126 / 118 40% 2 16.03.2027 -
Sam Bell Bristol City Ativo 122 / 127 40% 1 15.03.2027 -
Louie Barry Sheffield Wednesday Ativo 105 / 133 40% 3 14.03.2027 -
Xavier Amaechi Plymouth Argyle Ativo 123 / 109 40% 1 14.03.2027 -
Phoenix Patterson Stevenage Ativo 105 / 121 40% 1 13.03.2027 -
Oswin Appollis Orlando Pirates Ativo 119 / 125 40% 3 12.03.2027 -
Mohamed-Ali Cho Hull City Ativo 150 / 149 40% 1 11.03.2027 -
Othmane Boussaid Aris Thessaloniki Ativo 135 / 131 40% 1 06.03.2027 -
Sonny Carey Charlton Athletic Ativo 111 / 114 40% 1 05.03.2027 -
Mduduzi Shabalala Kaizer Chiefs Ativo 98 / 126 40% 2 03.03.2027 -
Jason Knight Bristol City Ativo 138 / 128 40% 2 03.03.2027 -
Williams Manyama SuperSport United Ativo 106 / 112 40% 2 01.03.2027 -
Siyanda Ndlovu Bloemfontein Celtic Ativo 131 / 117 40% 1 27.02.2027 -
Gustavo Assunção Apollon Ativo 108 / 104 40% 1 17.02.2027 -
Danyil Alefirenko Chornomorets Ativo 103 / 106 40% 1 13.02.2027 -
Ali Youssef Apollon Ativo 139 / 105 40% 3 12.02.2027 -
Josh Tymon Swansea City Ativo 126 / 132 40% 1 08.02.2027 -
Sergio Lozano Jagiellonia Ativo 120 / 115 40% 1 01.02.2027 -
Nikola Stajić Panetolikos Ativo 110 / 110 55% 1 06.01.2027 -
Themba Ngcobo SuperSport United Ativo 116 / 116 66% 1 01.01.2027 Aprovar
Zian Flemming Ipswich Town Ativo 125 / 129 40% 1 31.12.2026 -
Tom Cannon Sheffield United Ativo 118 / 113 40% 1 31.12.2026 -
Sayfallah Ltaief Cracovia Ativo 122 / 119 40% 1 28.12.2026 -
Sorba Thomas Stoke City Ativo 141 / 116 40% 1 26.12.2026 -
Nicolás Andereggen Ethnikos Achnas Ativo 95 / 120 40% 1 22.12.2026 -
Max Bird Birmingham Ativo 141 / 134 40% 1 21.12.2026 -
Juergen Elitím Bohemians 1905 Ativo 124 / 115 40% 1 21.12.2026 -
Suleiman Camara Slovan Bratislava Ativo 122 / 119 40% 1 09.12.2026 -
Denzel Jubitana Neftchi Ativo 119 / 120 40% 1 06.12.2026 -
Veljko Nikolić Aris Ativo 99 / 121 40% 2 02.12.2026 -
Eren Aydın Zira Ativo 100 / 102 40% 1 02.12.2026 -
Everton Bala Levski Ativo 126 / 133 40% 3 30.11.2026 -
Petr Juliš Slovan Liberec Ativo 118 / 110 40% 1 29.11.2026 -
Bongani Modiba Black Aces Ativo 101 / 123 40% 1 29.11.2026 -
Marcelo Allende Mamelodi Sundowns Ativo 130 / 121 40% 1 28.11.2026 -
Petar Stanić Ludogorets Ativo 126 / 131 40% 1 22.11.2026 -
Enzo Cabrera AE Kition Ativo 99 / 103 40% 1 21.11.2026 -
Tiago Manso Kifisia Ativo 118 / 117 40% 1 21.11.2026 -
Sebastián Medina Tigre Ativo 111 / 132 40% 1 12.11.2026 -
Joel Asoro Apollon Ativo 116 / 134 40% 1 07.11.2026 -
Riqui Puig LA Galaxy Ativo 139 / 121 40% 1 06.11.2026 -
Derek Agyakwa Volos NPS Ativo 94 / 101 55% 1 31.08.2026 -
Florin Tănase Omonoia Ativo 135 / 117 40% 1 01.08.2026 -